Theta_e
294 299 299 299 300 299 296 296 296 298 299 304 312 316 319 323 324 324 324 325 326 327 327 328 329 330 331 333 335 337 336 335 333 333 333 333 333 333 333 332 332 332 331 331
294 297 299 299 301 300 299 298 298 298 299 305 312 321 323 323 323 323 323 326 327 326 326 327 328 328 330 331 332 334 332 331 332 332 330 327 328 328 328 328 328 329 328 327
292 296 297 294 300 299 300 300 300 297 303 307 312 319 322 322 324 323 324 328 328 327 327 328 329 330 330 331 331 328 326 326 326 326 324 324 324 324 324 324 325 325 325 325
292 292 288 299 303 305 303 304 303 305 305 311 314 322 325 325 324 323 326 329 330 329 328 328 328 327 326 325 323 322 321 321 322 322 320 320 320 320 321 322 323 323 323 324
291 290 295 299 303 302 301 302 305 306 309 317 327 328 327 327 327 324 329 332 330 328 324 324 324 324 321 319 319 319 318 318 319 319 318 318 318 318 320 321 321 321 322 321
290 290 290 302 305 308 306 300 309 312 313 324 325 316 320 329 326 328 329 327 324 323 323 322 321 320 317 315 315 314 315 315 316 316 316 316 317 317 319 319 319 319 319 317
291 291 295 302 307 308 298 302 311 315 318 324 319 318 326 327 326 326 324 323 324 323 321 319 318 316 313 312 311 312 313 314 314 314 315 316 316 316 317 317 317 315 315 314
292 291 292 305 306 305 307 305 313 317 321 323 323 327 327 325 322 322 321 322 322 320 318 317 315 313 310 309 311 311 312 312 312 313 315 315 315 316 316 316 315 313 312 310
298 298 303 304 306 307 306 310 314 318 322 324 326 326 323 321 322 321 321 321 320 317 314 313 312 311 309 309 310 310 310 310 312 313 313 315 313 314 314 317 312 311 308 306
301 304 306 313 315 315 315 314 316 322 325 327 325 324 322 321 320 319 319 317 316 314 311 309 309 309 309 309 309 309 309 310 312 311 312 311 310 312 311 311 310 307 305 303
302 309 311 315 318 318 321 322 324 327 327 326 325 322 321 319 319 317 315 315 315 312 309 307 307 307 308 308 308 307 309 310 311 312 309 309 309 309 310 308 306 304 303 301
302 310 307 310 319 323 322 323 325 325 325 326 324 322 321 319 318 316 314 313 311 309 307 306 306 306 306 308 308 309 307 308 308 308 308 308 307 306 304 302 301 296 296 296
308 311 316 319 323 325 322 324 325 325 325 323 324 322 319 318 317 314 313 312 309 307 306 305 305 305 306 307 308 308 306 306 307 306 306 305 304 302 300 301 299 298 295 294
316 320 318 321 320 323 323 322 321 322 322 322 320 320 319 315 313 313 312 310 308 306 305 305 305 306 307 305 303 304 307 305 307 306 305 304 303 301 299 298 296 297 297 295
317 319 319 321 322 320 321 320 318 317 318 318 319 315 315 313 310 309 310 309 307 306 305 304 303 303 305 300 300 301 303 307 307 306 304 303 301 300 299 297 297 297 297 297
319 320 320 319 319 319 318 318 316 316 316 316 315 315 314 313 310 309 308 307 304 302 300 301 301 302 302 299 299 299 299 302 306 306 304 302 300 299 298 297 297 297 297 297
315 313 316 316 317 318 317 318 317 316 315 314 313 312 310 308 307 307 305 304 304 301 300 300 301 303 301 300 299 298 298 299 303 306 304 302 301 299 298 297 297 296 297 297
317 318 319 318 317 316 316 316 315 314 312 313 312 310 308 307 305 305 303 301 298 298 299 300 300 299 300 302 299 298 299 300 305 305 304 302 301 300 298 298 297 297 298 298
317 316 316 315 315 314 313 313 313 313 312 311 310 308 308 307 306 304 301 299 298 298 299 301 304 299 299 301 299 299 300 304 302 299 300 301 301 299 299 298 299 297 297 295
316 317 318 317 318 316 314 314 313 312 312 310 308 307 305 306 305 301 300 299 299 300 299 300 295 296 296 299 302 299 300 299 298 297 297 298 298 297 297 296 297 295 294 294
315 315 315 315 316 317 316 316 313 311 311 310 308 306 306 306 304 301 299 300 301 301 298 300 295 295 295 301 299 299 299 298 297 297 296 296 296 296 296 295 294 292 291 292
312 312 312 311 310 309 311 313 312 310 309 308 307 306 305 304 302 301 302 301 300 302 297 295 295 297 299 301 298 299 298 297 296 296 295 295 296 296 295 294 292 291 290 290
315 314 314 313 311 309 310 309 309 308 306 306 305 305 305 304 303 300 299 301 301 300 298 296 291 302 305 298 298 297 298 298 297 296 296 296 296 296 295 293 292 291 291 290
315 315 315 314 311 310 308 308 308 308 306 305 305 304 303 301 301 302 303 301 300 300 299 297 297 303 299 297 297 297 297 297 297 297 296 294 296 295 294 293 292 292 292 291
311 309 310 309 309 307 305 305 304 303 303 302 303 303 304 305 305 304 302 301 301 301 300 300 300 302 297 297 296 296 297 297 297 297 296 296 296 295 295 294 293 293 293 293
308 308 308 309 307 305 305 305 303 303 303 303 303 305 305 305 304 304 302 300 301 300 300 300 300 298 297 297 296 295 296 297 297 296 296 297 296 295 295 294 294 294 294 294
304 302 304 304 304 304 304 304 303 303 304 304 304 304 304 304 302 301 299 299 300 301 301 300 300 298 296 296 296 296 296 297 295 298 297 297 297 296 296 295 295 295 294 294
Wind_Speed
7 8 6 5 6 9 7 6 8 10 11 12 16 16 7 5 3 8 10 10 9 10 8 8 7 6 5 5 5 4 5 4 3 2 2 2 2 2 3 4 4 4 3 4
6 8 9 8 9 9 5 4 2 6 7 7 2 6 7 10 9 9 11 12 11 11 10 8 7 6 6 6 5 5 6 5 4 4 4 4 4 5 5 4 3 3 4 4
8 3 8 7 17 6 6 5 8 7 13 9 6 11 11 9 7 11 13 14 14 13 10 8 8 9 8 7 6 7 7 5 5 4 5 5 4 4 3 4 4 5 6 6
6 3 6 8 6 14 12 9 9 3 8 16 18 9 8 6 10 12 14 15 13 11 10 9 9 10 10 8 7 7 7 6 6 7 6 6 5 5 5 3 4 4 6 7
7 6 6 5 5 9 9 10 10 9 7 6 11 7 4 6 7 10 13 13 12 10 11 10 10 10 11 9 7 7 7 7 6 5 5 5 7 6 4 5 5 6 6 6
3 8 12 14 6 6 3 10 9 8 14 19 13 8 7 11 12 10 9 12 15 13 12 12 7 10 12 8 7 7 5 5 5 6 6 6 6 6 4 4 4 4 5 7
3 4 9 9 9 8 8 13 9 11 15 20 15 8 13 18 14 12 13 16 14 13 12 9 8 11 11 7 7 4 6 6 6 5 5 4 3 3 3 5 5 6 7 7
3 3 7 7 6 19 10 0 7 9 14 16 10 17 23 21 20 18 17 15 14 14 11 8 8 12 8 8 3 4 4 4 5 5 4 4 5 5 5 5 6 6 7 7
10 10 5 4 1 4 5 8 8 10 8 12 15 16 19 21 20 18 18 17 13 13 12 8 9 7 8 4 4 4 4 4 4 4 5 5 6 7 5 4 4 5 5 6
5 5 7 4 2 1 2 3 7 7 18 19 22 19 19 18 16 14 14 13 13 15 12 10 6 6 7 5 4 4 4 3 3 3 5 5 4 4 4 5 5 6 7 8
4 2 1 3 5 4 4 9 15 14 18 21 23 19 21 19 17 14 13 12 11 11 11 9 7 6 5 4 4 4 4 3 4 3 3 3 3 4 4 4 4 5 5 6
7 9 6 6 5 7 8 11 19 25 19 19 25 24 21 17 15 15 14 13 11 11 11 7 7 6 4 3 4 4 4 3 2 3 3 3 3 4 7 6 3 6 6 5
3 3 3 5 5 5 7 11 13 19 21 25 17 21 21 20 15 16 14 13 12 12 12 9 6 6 3 3 4 5 4 3 3 4 4 4 4 5 5 5 8 8 8 8
5 7 7 4 5 8 14 12 15 17 17 20 23 18 20 18 17 15 13 11 11 12 12 8 6 5 4 3 4 4 3 5 3 3 3 3 4 4 3 4 5 5 6 7
1 1 6 11 14 13 17 20 21 18 18 21 18 21 20 19 16 14 13 12 10 7 7 9 6 4 4 2 5 4 3 2 3 3 3 3 3 3 2 3 3 3 4 6
6 11 15 16 13 15 19 18 20 19 19 19 18 17 16 15 14 13 13 14 14 8 5 7 6 4 4 4 4 3 2 4 5 4 4 4 3 2 1 2 2 3 4 5
8 7 13 15 15 13 12 14 15 15 19 20 18 18 17 16 15 13 11 7 9 6 6 6 6 5 4 4 4 2 2 2 5 4 4 3 3 3 1 0 2 3 4 5
8 9 8 13 13 15 15 14 16 17 17 18 17 17 18 16 15 13 12 9 7 5 4 5 5 4 4 3 2 3 2 2 3 4 3 3 3 2 2 0 2 4 5 5
14 17 15 15 15 16 15 16 15 17 16 17 18 13 14 15 14 12 10 7 6 7 5 4 8 6 4 2 4 3 3 3 4 3 3 3 3 2 1 1 2 4 4 5
16 17 17 15 13 14 15 13 15 13 12 14 15 14 14 14 14 15 10 6 6 3 6 5 5 5 3 2 7 3 4 4 4 3 3 4 3 1 2 3 4 4 5 5
17 16 16 14 12 11 10 10 12 11 10 11 14 13 13 11 11 14 11 6 6 5 6 7 5 3 1 4 6 4 5 4 4 3 3 3 3 2 4 5 5 4 4 4
15 17 18 16 13 13 10 7 6 7 9 9 9 10 12 10 10 9 4 6 5 11 5 4 3 4 3 9 4 5 5 5 4 3 3 4 3 3 3 4 4 4 3 3
13 16 17 18 13 9 8 9 8 5 6 5 8 8 9 8 8 9 6 6 6 9 4 3 5 5 12 4 4 4 5 5 5 4 4 3 4 4 4 3 4 3 3 3
10 10 11 12 16 13 10 7 8 6 6 5 5 6 8 5 1 1 2 10 10 10 5 5 5 9 9 4 4 3 3 4 3 3 4 4 4 4 4 4 3 3 3 2
9 10 9 9 8 6 9 6 6 6 6 5 6 5 5 3 5 6 4 5 9 8 4 6 7 10 4 4 4 4 3 4 4 4 5 5 5 5 4 4 4 4 3 2
8 6 4 6 6 7 7 7 6 5 5 5 3 3 3 3 2 4 4 6 7 8 5 4 4 5 5 4 4 4 4 5 5 5 5 5 6 5 5 5 5 5 4 3
7 7 4 4 3 5 5 6 6 4 4 4 4 4 4 3 3 3 5 5 5 5 5 5 4 5 4 4 5 5 5 5 6 5 5 5 6 6 6 6 5 5 4 3
Wind_Direction
218 199 175 215 178 162 161 186 160 222 186 210 203 201 182 154 130 126 122 117 116 122 120 118 117 111 103 90 85 74 82 78 64 75 58 38 5 338 12 23 1 330 316 332
244 221 189 221 237 184 161 134 290 123 238 218 125 99 163 174 152 147 136 131 128 124 130 139 139 123 108 100 89 96 92 85 77 80 79 75 50 35 29 2 332 329 348 338
235 155 113 271 231 184 183 174 155 169 221 159 155 197 197 170 163 154 147 140 138 138 142 136 132 131 119 107 98 89 92 86 82 76 61 40 31 29 3 349 345 345 342 351
197 71 204 252 205 188 190 203 192 135 181 181 186 164 118 138 159 156 149 142 140 134 119 113 113 102 100 98 93 85 67 55 41 38 33 18 18 12 354 339 338 347 355 356
145 188 291 273 186 170 160 247 187 182 154 122 113 71 34 152 154 154 157 143 131 122 118 111 110 110 101 83 77 69 52 39 27 28 24 12 13 360 353 360 1 359 0 360
158 155 207 227 230 198 108 226 181 163 159 148 143 156 215 156 130 125 130 131 125 119 111 108 109 104 90 79 69 57 44 29 21 23 24 13 359 354 353 3 348 350 13 15
169 213 280 237 185 105 150 227 174 171 169 161 175 191 135 131 126 133 132 121 119 114 111 112 108 100 90 86 65 40 37 34 32 19 6 15 357 2 359 13 22 18 10 3
130 142 265 156 50 182 188 331 170 164 175 180 113 132 137 137 135 133 126 119 115 112 108 106 104 96 90 81 68 65 61 48 32 19 19 18 29 11 17 35 24 7 351 352
171 205 239 251 305 314 162 150 172 149 145 133 134 141 140 138 137 136 134 127 121 114 106 89 79 102 111 111 92 75 68 56 45 39 48 47 40 26 2 26 35 3 351 340
109 231 223 229 324 301 215 218 150 136 142 141 137 139 131 126 125 119 117 114 114 116 112 100 102 98 106 119 112 113 100 81 80 70 78 55 57 47 40 27 18 5 353 345
263 350 262 248 193 172 135 124 109 122 139 139 134 136 132 128 128 122 119 119 124 125 116 126 116 105 114 130 138 106 82 80 67 81 67 63 43 38 37 51 43 8 359 347
216 208 163 214 156 134 148 148 143 131 133 140 137 136 134 126 124 126 131 126 127 122 125 119 112 117 118 122 133 120 97 90 64 63 52 55 44 33 52 47 33 360 356 341
259 149 89 86 95 107 120 139 138 135 139 136 133 131 126 125 128 126 124 130 133 146 125 128 132 117 138 142 131 125 127 117 82 60 54 47 46 45 25 353 9 358 354 343
186 125 65 175 157 121 114 107 107 107 119 121 122 125 124 124 127 127 129 132 141 132 124 129 126 152 187 171 137 124 129 118 106 95 77 61 54 54 42 33 20 2 333 336
262 265 121 111 112 118 121 124 120 122 129 124 125 124 124 124 123 124 132 132 110 98 120 119 132 175 188 160 136 133 131 166 139 118 109 113 104 75 35 34 21 1 346 353
94 104 111 115 122 131 133 132 127 134 131 125 124 124 124 118 119 127 131 121 130 140 188 138 158 182 180 143 126 137 192 202 179 156 150 142 137 124 54 22 0 6 7 1
93 110 123 126 131 129 129 128 129 130 122 123 122 118 119 116 116 116 114 104 107 160 159 148 167 170 161 152 152 183 204 177 176 157 166 165 159 173 183 309 351 345 346 335
102 92 103 123 127 124 122 121 126 121 118 118 122 125 123 131 135 132 118 117 122 124 153 174 151 163 153 177 169 170 163 131 146 159 160 169 189 189 204 258 357 353 360 354
85 90 89 91 101 105 107 109 111 114 121 126 122 133 129 122 119 114 117 134 147 145 196 174 172 151 167 196 146 138 131 123 109 108 111 124 142 182 215 75 34 40 38 28
91 94 99 95 98 110 116 113 114 119 128 129 122 124 121 129 134 127 131 166 197 167 151 181 152 163 155 139 140 139 138 125 115 100 90 94 101 120 97 111 94 59 46 43
92 87 81 82 89 95 103 120 131 135 137 136 135 140 133 137 142 133 137 161 213 164 174 164 151 150 157 137 139 144 140 138 133 129 123 122 119 106 104 103 85 69 66 61
98 92 83 76 67 59 53 60 84 109 120 119 120 126 127 141 148 139 151 163 163 171 180 143 147 183 164 148 141 144 156 147 141 144 142 144 151 150 126 110 102 99 87 78
112 111 110 105 100 97 67 62 45 58 98 110 117 145 154 159 163 142 168 194 165 178 153 133 184 181 150 148 155 152 156 151 158 165 155 153 162 156 146 136 129 126 125 107
118 112 111 117 121 122 134 161 164 160 126 153 154 131 148 146 129 127 168 156 158 156 158 164 186 167 154 156 151 146 144 153 164 160 150 146 157 152 148 147 155 157 150 155
100 97 106 122 132 97 108 121 117 125 116 121 135 170 176 191 164 186 172 170 158 157 159 169 177 164 161 163 156 151 163 183 182 174 161 170 174 168 169 174 188 197 198 206
98 92 97 124 124 135 145 150 143 142 147 142 156 176 164 194 207 157 169 158 165 168 162 160 168 171 172 172 176 163 190 197 192 187 183 183 186 183 183 184 196 206 212 213
83 88 92 89 95 127 136 128 123 150 177 165 159 177 181 200 195 167 154 166 170 177 174 176 176 173 177 172 190 193 201 206 207 198 194 202 199 195 195 196 198 204 207 208